Track ORBCOMM FM 32 now! 10-day predictions ORBCOMM FM 32 is classified as:
1 25982U 99065C 22187.54236733 .00000193 00000-0 12248-3 0 9991 2 25982 45.0168 129.5240 0005097 44.3074 315.8179 14.32369438180060